Location: G?julap?du
(16.5372°N, 81.0979°E)
Time: 14:38:30
(UTC+00:00)

SL-16 R/B - Pass Details

Date: 14 April 2026
Orbit: 985 x 1006 km, 99.8° (Epoch: 11 May)

Event Time Altitude Azimuth Distance (km) Brightness Sun altitude
Rises 22:24:33 0° 154° (SSE) 3,704 5.6 -27.7°
Reaches altitude 10° 22:27:04 10° 149° (SSE) 2,759 5.0 -27.1°
Maximum altitude 22:33:04 53° 74° (ENE) 1,214 3.3 -25.7°
Drops below altitude 10° 22:39:06 10° 359° (N) 2,774 5.1 -24.4°
Sets 22:41:38 0° 355° (N) 3,726 5.7 -23.8°
